User: anonymous   Login
Location: Theydon Bois
(51.6750°N, 0.1050°E)
Time: 08:41:31
(UTC+01:00)
Language:

MTI - Orbit

View from above orbital plane
View from above orbital plane
View from above satellite
View from above satellite

Ground track
Ground track

The orbit data is extracted from the following two-line orbital elements,

1 26102U 00014A   18169.09560501  .00002305  00000-0  42451-4 0  9997
2 26102  97.5802   3.3734 0009261  34.0572 118.9865 15.50295803 11168
Epoch (UTC): 18 June 2018 02:17:40
Eccentricity: 0.0009261
inclination: 97.5802°
perigee height: 409 km
apogee height: 422 km
right ascension of ascending node: 3.3734°
argument of perigee: 34.0572°
revolutions per day: 15.50295803
mean anomaly at epoch: 118.9865°
orbit number at epoch: 1116

The dashed part of the orbit path shows where the satellite is in the earth's shadow,  

DLR